Time,TemperatureF,DewpointF,PressureIn,WindDirection,WindDirectionDegrees,WindSpeedMPH,WindSpeedGustMPH,Humidity,HourlyPrecipIn,Conditions,Clouds,dailyrainin,SoftwareType,DateUTC
2013-06-03 00:03:00,60.0,59.0,29.58,WNW,295,2.0,7.0,97,0.05,,,0.05,,2013-06-03 04:03:00,
2013-06-03 00:13:00,60.0,59.0,29.58,WNW,295,2.0,7.0,97,0.05,,,0.05,,2013-06-03 04:13:00,
2013-06-03 00:23:00,61.0,60.0,29.59,WNW,293,4.0,7.0,98,0.04,,,0.05,,2013-06-03 04:23:00,
2013-06-03 00:33:00,61.0,60.0,29.59,NNW,334,6.0,9.0,97,0.01,,,0.05,,2013-06-03 04:33:00,
2013-06-03 00:42:00,61.0,60.0,29.59,NNW,334,6.0,9.0,97,0.01,,,0.05,,2013-06-03 04:42:00,
2013-06-03 00:53:00,61.0,60.0,29.59,WNW,302,4.0,8.0,98,0.00,,,0.05,,2013-06-03 04:53:00,
2013-06-03 01:02:00,59.0,58.0,29.60,WNW,290,5.0,10.0,98,0.00,,,0.05,,2013-06-03 05:02:00,
2013-06-03 01:12:00,59.0,58.0,29.60,WNW,285,7.0,13.0,98,0.00,,,0.05,,2013-06-03 05:12:00,
2013-06-03 01:22:00,59.0,58.0,29.60,WNW,285,7.0,13.0,98,0.00,,,0.05,,2013-06-03 05:22:00,
2013-06-03 01:32:00,58.0,57.0,29.60,WNW,299,7.0,11.0,98,0.00,,,0.05,,2013-06-03 05:32:00,
2013-06-03 01:43:00,58.0,57.0,29.60,WNW,299,7.0,11.0,98,0.00,,,0.05,,2013-06-03 05:43:00,
2013-06-03 01:52:00,58.0,58.0,29.60,WNW,289,7.0,11.0,99,0.00,,,0.05,,2013-06-03 05:52:00,
2013-06-03 02:02:00,59.0,59.0,29.60,WSW,258,4.0,9.0,99,0.00,,,0.05,,2013-06-03 06:02:00,
2013-06-03 02:12:00,59.0,59.0,29.60,WSW,258,4.0,9.0,99,0.00,,,0.05,,2013-06-03 06:12:00,
2013-06-03 02:22:00,58.0,58.0,29.60,West,280,3.0,7.0,99,0.00,,,0.05,,2013-06-03 06:22:00,
2013-06-03 02:32:00,57.0,57.0,29.60,West,279,2.0,9.0,99,0.00,,,0.05,,2013-06-03 06:32:00,
2013-06-03 02:42:00,57.0,57.0,29.60,West,279,2.0,9.0,99,0.00,,,0.05,,2013-06-03 06:42:00,
2013-06-03 02:52:00,57.0,57.0,29.60,West,260,2.0,8.0,99,0.00,,,0.05,,2013-06-03 06:52:00,
2013-06-03 03:02:00,57.0,57.0,29.60,WSW,252,3.0,9.0,99,0.00,,,0.05,,2013-06-03 07:02:00,
2013-06-03 03:12:00,57.0,57.0,29.60,WSW,252,3.0,9.0,99,0.00,,,0.05,,2013-06-03 07:12:00,
2013-06-03 03:22:00,57.0,57.0,29.59,West,281,4.0,7.0,99,0.00,,,0.05,,2013-06-03 07:22:00,
2013-06-03 03:32:00,57.0,57.0,29.59,WNW,290,4.0,8.0,99,0.00,,,0.05,,2013-06-03 07:32:00,
2013-06-03 03:42:00,57.0,57.0,29.59,WNW,290,4.0,8.0,99,0.00,,,0.05,,2013-06-03 07:42:00,
2013-06-03 03:52:00,56.0,56.0,29.59,WNW,298,4.0,8.0,99,0.00,,,0.05,,2013-06-03 07:52:00,
2013-06-03 04:02:00,56.0,56.0,29.58,WNW,288,2.0,8.0,99,0.00,,,0.05,,2013-06-03 08:02:00,
2013-06-03 04:12:00,56.0,56.0,29.58,WNW,288,2.0,8.0,99,0.00,,,0.05,,2013-06-03 08:12:00,
2013-06-03 04:22:00,56.0,56.0,29.59,WNW,295,4.0,9.0,99,0.00,,,0.05,,2013-06-03 08:22:00,
2013-06-03 04:32:00,56.0,56.0,29.59,WNW,295,3.0,5.0,99,0.00,,,0.05,,2013-06-03 08:32:00,
2013-06-03 04:42:00,56.0,56.0,29.59,WNW,295,3.0,5.0,99,0.00,,,0.05,,2013-06-03 08:42:00,
2013-06-03 04:52:00,56.0,56.0,29.59,NW,307,4.0,8.0,100,0.00,,,0.05,,2013-06-03 08:52:00,
2013-06-03 05:02:00,56.0,56.0,29.60,NW,307,3.0,6.0,100,0.00,,,0.05,,2013-06-03 09:02:00,
2013-06-03 05:12:00,56.0,56.0,29.60,NW,307,3.0,6.0,100,0.00,,,0.05,,2013-06-03 09:12:00,
2013-06-03 05:22:00,56.0,56.0,29.60,NW,308,5.0,9.0,100,0.00,,,0.05,,2013-06-03 09:22:00,
2013-06-03 05:33:00,56.0,56.0,29.60,NW,309,4.0,8.0,100,0.00,,,0.05,,2013-06-03 09:33:00,
2013-06-03 05:43:00,56.0,56.0,29.60,NW,309,4.0,8.0,100,0.00,,,0.05,,2013-06-03 09:43:00,
2013-06-03 05:52:00,56.0,56.0,29.59,NW,308,3.0,7.0,100,0.00,,,0.05,,2013-06-03 09:52:00,
2013-06-03 06:03:00,56.0,56.0,29.60,NW,308,2.0,5.0,100,0.00,,,0.05,,2013-06-03 10:03:00,
2013-06-03 06:13:00,56.0,56.0,29.59,NW,308,2.0,5.0,100,0.00,,,0.05,,2013-06-03 10:13:00,
2013-06-03 06:22:00,56.0,56.0,29.59,NW,308,2.0,5.0,100,0.00,,,0.05,,2013-06-03 10:22:00,
2013-06-03 06:33:00,57.0,57.0,29.60,NW,308,3.0,6.0,100,0.00,,,0.05,,2013-06-03 10:33:00,
2013-06-03 06:42:00,57.0,57.0,29.60,NW,308,3.0,6.0,100,0.00,,,0.05,,2013-06-03 10:42:00,
2013-06-03 06:52:00,56.0,56.0,29.61,NW,308,4.0,7.0,100,0.00,,,0.05,,2013-06-03 10:52:00,
2013-06-03 07:02:00,56.0,56.0,29.62,NW,317,5.0,12.0,100,0.00,,,0.05,,2013-06-03 11:02:00,
2013-06-03 07:12:00,56.0,56.0,29.62,NW,317,5.0,12.0,100,0.00,,,0.05,,2013-06-03 11:12:00,
2013-06-03 07:22:00,56.0,56.0,29.62,NW,304,4.0,9.0,100,0.00,,,0.05,,2013-06-03 11:22:00,
2013-06-03 07:32:00,56.0,56.0,29.63,WNW,292,6.0,9.0,100,0.00,,,0.05,,2013-06-03 11:32:00,
2013-06-03 07:42:00,56.0,56.0,29.63,WNW,292,6.0,9.0,100,0.00,,,0.05,,2013-06-03 11:42:00,
2013-06-03 07:52:00,56.0,56.0,29.64,WNW,294,7.0,11.0,100,0.00,,,0.05,,2013-06-03 11:52:00,
2013-06-03 08:02:00,56.0,56.0,29.66,WNW,302,8.0,15.0,100,0.00,,,0.05,,2013-06-03 12:02:00,
2013-06-03 08:12:00,56.0,56.0,29.66,WNW,302,8.0,15.0,100,0.00,,,0.05,,2013-06-03 12:12:00,
2013-06-03 08:22:00,55.0,55.0,29.65,NW,319,8.0,16.0,100,0.00,,,0.05,,2013-06-03 12:22:00,
2013-06-03 08:32:00,56.0,56.0,29.65,WNW,297,6.0,12.0,100,0.01,,,0.06,,2013-06-03 12:32:00,
2013-06-03 08:42:00,56.0,56.0,29.65,WNW,297,6.0,12.0,100,0.01,,,0.06,,2013-06-03 12:42:00,
2013-06-03 08:52:00,56.0,56.0,29.64,NW,309,5.0,10.0,100,0.01,,,0.06,,2013-06-03 12:52:00,
2013-06-03 09:02:00,57.0,57.0,29.64,WNW,302,4.0,10.0,100,0.01,,,0.06,,2013-06-03 13:02:00,
2013-06-03 09:12:00,57.0,57.0,29.64,WNW,302,4.0,10.0,100,0.01,,,0.06,,2013-06-03 13:12:00,
2013-06-03 09:22:00,58.0,58.0,29.63,NW,310,6.0,13.0,100,0.01,,,0.06,,2013-06-03 13:22:00,
2013-06-03 09:32:00,58.0,58.0,29.63,WNW,296,4.0,11.0,100,0.00,,,0.06,,2013-06-03 13:32:00,
2013-06-03 09:43:00,58.0,58.0,29.63,WNW,296,4.0,11.0,100,0.00,,,0.06,,2013-06-03 13:43:00,
2013-06-03 09:52:00,58.0,58.0,29.63,NW,309,1.0,6.0,100,0.00,,,0.06,,2013-06-03 13:52:00,
2013-06-03 10:02:00,58.0,58.0,29.62,NW,309,2.0,4.0,100,0.00,,,0.06,,2013-06-03 14:02:00,
2013-06-03 10:13:00,58.0,58.0,29.62,NW,309,2.0,4.0,100,0.00,,,0.06,,2013-06-03 14:13:00,
2013-06-03 10:22:00,58.0,58.0,29.62,NW,309,0.0,4.0,100,0.00,,,0.06,,2013-06-03 14:22:00,
2013-06-03 10:32:00,59.0,59.0,29.61,NW,309,0.0,3.0,100,0.00,,,0.06,,2013-06-03 14:32:00,
2013-06-03 10:42:00,59.0,59.0,29.61,NW,309,0.0,3.0,100,0.00,,,0.06,,2013-06-03 14:42:00,
2013-06-03 10:52:00,60.0,60.0,29.61,NW,309,3.0,5.0,100,0.00,,,0.06,,2013-06-03 14:52:00,
2013-06-03 11:02:00,60.0,60.0,29.61,NW,309,2.0,6.0,100,0.00,,,0.06,,2013-06-03 15:02:00,
2013-06-03 11:12:00,60.0,60.0,29.61,NW,309,2.0,6.0,100,0.00,,,0.06,,2013-06-03 15:12:00,
2013-06-03 11:22:00,60.0,60.0,29.61,NW,309,1.0,5.0,100,0.00,,,0.06,,2013-06-03 15:22:00,
2013-06-03 11:33:00,61.0,61.0,29.60,NW,309,1.0,2.0,100,0.00,,,0.06,,2013-06-03 15:33:00,
2013-06-03 11:43:00,61.0,61.0,29.60,NW,309,1.0,2.0,100,0.00,,,0.06,,2013-06-03 15:43:00,
2013-06-03 11:53:00,62.0,62.0,29.60,NW,309,2.0,4.0,100,0.00,,,0.06,,2013-06-03 15:53:00,
2013-06-03 12:03:00,62.0,62.0,29.61,NW,309,1.0,4.0,100,0.00,,,0.06,,2013-06-03 16:03:00,
2013-06-03 12:13:00,64.0,64.0,29.61,NW,309,3.0,6.0,100,0.00,,,0.06,,2013-06-03 16:13:00,
2013-06-03 12:23:00,64.0,64.0,29.61,NW,309,3.0,6.0,100,0.00,,,0.06,,2013-06-03 16:23:00,
2013-06-03 12:33:00,62.0,62.0,29.62,NW,310,2.0,5.0,100,0.00,,,0.06,,2013-06-03 16:33:00,
2013-06-03 12:42:00,64.0,64.0,29.61,NW,311,4.0,6.0,100,0.00,,,0.06,,2013-06-03 16:42:00,
2013-06-03 12:53:00,64.0,64.0,29.61,NW,311,4.0,6.0,100,0.00,,,0.06,,2013-06-03 16:53:00,
2013-06-03 13:02:00,66.0,66.0,29.61,WNW,295,4.0,8.0,100,0.00,,,0.06,,2013-06-03 17:02:00,
2013-06-03 13:12:00,66.0,66.0,29.61,WNW,295,4.0,8.0,100,0.00,,,0.06,,2013-06-03 17:12:00,
2013-06-03 13:22:00,68.0,67.0,29.60,NW,309,4.0,10.0,95,0.00,,,0.06,,2013-06-03 17:22:00,
2013-06-03 13:33:00,67.0,64.0,29.60,NW,308,4.0,9.0,90,0.00,,,0.06,,2013-06-03 17:33:00,
2013-06-03 13:42:00,67.0,64.0,29.59,NW,305,4.0,8.0,89,0.00,,,0.06,,2013-06-03 17:42:00,
2013-06-03 13:52:00,67.0,64.0,29.59,NW,305,4.0,8.0,89,0.00,,,0.06,,2013-06-03 17:52:00,
2013-06-03 14:02:00,66.0,62.0,29.60,NW,323,8.0,13.0,88,0.00,,,0.06,,2013-06-03 18:02:00,
2013-06-03 14:12:00,65.0,62.0,29.59,NNW,334,6.0,11.0,90,0.00,,,0.06,,2013-06-03 18:12:00,
2013-06-03 14:22:00,65.0,62.0,29.59,NNW,334,6.0,11.0,90,0.00,,,0.06,,2013-06-03 18:22:00,
2013-06-03 14:32:00,64.0,62.0,29.59,NW,316,5.0,10.0,92,0.00,,,0.06,,2013-06-03 18:32:00,
2013-06-03 14:42:00,64.0,62.0,29.59,NW,316,5.0,10.0,92,0.00,,,0.06,,2013-06-03 18:42:00,
2013-06-03 14:52:00,64.0,62.0,29.59,NW,316,5.0,10.0,92,0.00,,,0.06,,2013-06-03 18:52:00,
2013-06-03 15:03:00,65.0,62.0,29.58,WNW,284,5.0,9.0,89,0.00,,,0.06,,2013-06-03 19:03:00,
2013-06-03 15:12:00,65.0,62.0,29.58,WNW,284,5.0,9.0,89,0.00,,,0.06,,2013-06-03 19:12:00,
2013-06-03 15:23:00,65.0,62.0,29.58,NW,308,4.0,9.0,89,0.00,,,0.06,,2013-06-03 19:23:00,
2013-06-03 15:32:00,63.0,60.0,29.58,NW,316,4.0,9.0,90,0.00,,,0.06,,2013-06-03 19:32:00,
2013-06-03 15:42:00,63.0,60.0,29.58,NW,316,4.0,9.0,90,0.00,,,0.06,,2013-06-03 19:42:00,
2013-06-03 15:52:00,64.0,61.0,29.57,WNW,293,5.0,8.0,90,0.00,,,0.06,,2013-06-03 19:52:00,
2013-06-03 16:02:00,64.0,61.0,29.57,WNW,302,4.0,8.0,89,0.00,,,0.06,,2013-06-03 20:02:00,
2013-06-03 16:12:00,64.0,61.0,29.57,WNW,302,4.0,8.0,89,0.00,,,0.06,,2013-06-03 20:12:00,
2013-06-03 16:22:00,65.0,61.0,29.56,WNW,286,6.0,9.0,87,0.00,,,0.06,,2013-06-03 20:22:00,
2013-06-03 16:33:00,65.0,61.0,29.56,WNW,298,5.0,11.0,88,0.00,,,0.06,,2013-06-03 20:33:00,
2013-06-03 16:42:00,65.0,61.0,29.56,WNW,298,5.0,11.0,88,0.00,,,0.06,,2013-06-03 20:42:00,
2013-06-03 16:52:00,65.0,61.0,29.56,WNW,290,5.0,13.0,87,0.00,,,0.06,,2013-06-03 20:52:00,
2013-06-03 17:02:00,65.0,61.0,29.56,NW,314,6.0,14.0,87,0.00,,,0.06,,2013-06-03 21:02:00,
2013-06-03 17:12:00,65.0,61.0,29.56,NW,314,6.0,14.0,87,0.00,,,0.06,,2013-06-03 21:12:00,
2013-06-03 17:22:00,65.0,61.0,29.56,WNW,296,7.0,12.0,86,0.00,,,0.06,,2013-06-03 21:22:00,
2013-06-03 17:33:00,65.0,61.0,29.56,WNW,302,5.0,10.0,86,0.00,,,0.06,,2013-06-03 21:33:00,
2013-06-03 17:43:00,65.0,61.0,29.56,WNW,302,5.0,10.0,86,0.00,,,0.06,,2013-06-03 21:43:00,
2013-06-03 17:53:00,65.0,60.0,29.55,WNW,289,8.0,13.0,85,0.00,,,0.06,,2013-06-03 21:53:00,
2013-06-03 18:03:00,65.0,60.0,29.55,West,268,8.0,17.0,85,0.00,,,0.06,,2013-06-03 22:03:00,
2013-06-03 18:12:00,65.0,60.0,29.55,West,268,8.0,17.0,85,0.00,,,0.06,,2013-06-03 22:12:00,
2013-06-03 18:22:00,65.0,60.0,29.55,WNW,285,4.0,9.0,85,0.00,,,0.06,,2013-06-03 22:22:00,
2013-06-03 18:33:00,64.0,60.0,29.55,West,271,3.0,8.0,86,0.00,,,0.06,,2013-06-03 22:33:00,
2013-06-03 18:42:00,64.0,60.0,29.55,West,271,3.0,8.0,86,0.00,,,0.06,,2013-06-03 22:42:00,
2013-06-03 18:52:00,64.0,60.0,29.54,SW,221,6.0,9.0,86,0.00,,,0.06,,2013-06-03 22:52:00,
2013-06-03 19:02:00,64.0,60.0,29.54,WNW,282,5.0,10.0,88,0.00,,,0.06,,2013-06-03 23:02:00,
2013-06-03 19:12:00,64.0,60.0,29.54,WNW,282,5.0,10.0,88,0.00,,,0.06,,2013-06-03 23:12:00,
2013-06-03 19:23:00,63.0,60.0,29.55,WNW,288,5.0,12.0,89,0.00,,,0.06,,2013-06-03 23:23:00,
2013-06-03 19:32:00,62.0,59.0,29.54,WNW,294,6.0,12.0,91,0.00,,,0.06,,2013-06-03 23:32:00,
2013-06-03 19:42:00,62.0,59.0,29.54,WNW,294,6.0,12.0,91,0.00,,,0.06,,2013-06-03 23:42:00,
2013-06-03 19:52:00,62.0,59.0,29.55,West,281,5.0,10.0,91,0.00,,,0.06,,2013-06-03 23:52:00,
2013-06-03 20:02:00,60.0,58.0,29.55,West,281,6.0,12.0,94,0.00,,,0.06,,2013-06-04 00:02:00,
2013-06-03 20:12:00,60.0,58.0,29.55,West,281,6.0,12.0,94,0.00,,,0.06,,2013-06-04 00:12:00,
2013-06-03 20:22:00,59.0,58.0,29.55,NW,309,8.0,18.0,95,0.00,,,0.06,,2013-06-04 00:22:00,
2013-06-03 20:32:00,59.0,58.0,29.54,NW,307,7.0,13.0,96,0.00,,,0.06,,2013-06-04 00:32:00,
2013-06-03 20:42:00,59.0,58.0,29.54,NW,307,7.0,13.0,96,0.00,,,0.06,,2013-06-04 00:42:00,
2013-06-03 20:52:00,59.0,58.0,29.55,WNW,302,4.0,11.0,97,0.00,,,0.06,,2013-06-04 00:52:00,
2013-06-03 21:02:00,59.0,58.0,29.56,NW,316,5.0,10.0,96,0.00,,,0.06,,2013-06-04 01:02:00,
2013-06-03 21:12:00,59.0,58.0,29.56,NW,316,5.0,10.0,96,0.00,,,0.06,,2013-06-04 01:12:00,
2013-06-03 21:22:00,58.0,57.0,29.56,NW,319,8.0,14.0,97,0.00,,,0.06,,2013-06-04 01:22:00,
2013-06-03 21:32:00,58.0,57.0,29.56,WNW,301,4.0,11.0,97,0.00,,,0.06,,2013-06-04 01:32:00,
2013-06-03 21:42:00,58.0,57.0,29.56,WNW,301,4.0,11.0,97,0.00,,,0.06,,2013-06-04 01:42:00,
2013-06-03 21:52:00,58.0,57.0,29.57,WNW,293,0.0,5.0,98,0.00,,,0.06,,2013-06-04 01:52:00,
2013-06-03 22:02:00,57.0,56.0,29.57,WNW,299,2.0,6.0,98,0.00,,,0.06,,2013-06-04 02:02:00,
2013-06-03 22:12:00,57.0,56.0,29.57,WNW,299,2.0,6.0,98,0.00,,,0.06,,2013-06-04 02:12:00,
2013-06-03 22:22:00,57.0,56.0,29.57,WNW,299,3.0,5.0,98,0.00,,,0.06,,2013-06-04 02:22:00,
2013-06-03 22:32:00,57.0,57.0,29.57,WNW,299,0.0,4.0,99,0.00,,,0.06,,2013-06-04 02:32:00,
2013-06-03 22:42:00,57.0,57.0,29.57,WNW,299,0.0,4.0,99,0.00,,,0.06,,2013-06-04 02:42:00,
2013-06-03 22:52:00,57.0,57.0,29.57,WNW,299,0.0,2.0,99,0.00,,,0.06,,2013-06-04 02:52:00,
2013-06-03 23:02:00,58.0,58.0,29.57,WNW,299,0.0,0.0,99,0.00,,,0.06,,2013-06-04 03:02:00,
2013-06-03 23:12:00,58.0,58.0,29.57,WNW,299,0.0,0.0,99,0.00,,,0.06,,2013-06-04 03:12:00,
2013-06-03 23:22:00,58.0,58.0,29.57,WNW,293,3.0,4.0,99,0.00,,,0.06,,2013-06-04 03:22:00,
2013-06-03 23:33:00,57.0,57.0,29.57,WNW,290,0.0,4.0,99,0.00,,,0.04,,2013-06-04 03:33:00,
2013-06-03 23:43:00,57.0,57.0,29.57,WNW,290,0.0,4.0,99,0.00,,,0.04,,2013-06-04 03:43:00,
2013-06-03 23:53:00,58.0,58.0,29.58,WNW,290,0.0,2.0,99,0.00,,,0.04,,2013-06-04 03:53:00,